Probability
0 0 0 0 0 0 0 0 0 0 0 0 0 0 0 0 0 0 0 0 0 0 0 0 0 0 0 0 0 0 0 0 0 0 0 0 0 0 0 0 0 0 0
0 0 0 0 0 0 0 0 0 0 0 0 0 0 0 0 0 0 0 0 0 0 0 0 0 0 0 0 0 0 0 0 0 0 0 0 0 0 0 0 0 0 0
0 0 0 0 0 0 0 0 0 0 0 0 0 0 0 0 0 0 0 0 0 0 0 0 0 0 0 0 0 0 0 0 0 0 0 0 0 0 0 0 0 0 0
0 0 0 0 0 0 0 0 0 0 0 0 0 0 0 0 0 0 0 0 0 0 0 0 0 0 0 0 0 0 0 0 0 0 0 0 0 0 0 0 0 0 0
0 0 0 0 0 0 0 0 0 0 0 0 0 0 0 0 0 0 0 0 0 0 0 0 0 0 0 0 0 0 0 0 0 0 0 0 0 0 0 0 0 0 0
0 0 0 0 0 0 0 0 0 0 0 0 0 0 0 0 0 0 0 0 0 0 0 0 0 0 0 0 0 0 0 0 0 0 0 0 0 0 0 0 0 0 0
0 0 0 0 0 0 0 0 0 0 0 0 0 0 0 0 0 0 0 0 0 0 0 0 0 0 0 0 0 0 0 0 0 0 0 0 0 0 0 0 0 0 0
0 0 0 0 0 0 0 0 0 0 0 0 0 0 0 0 0 0 0 0 0 0 0 0 0 0 0 0 0 0 0 0 0 0 0 0 0 0 0 0 0 0 0
0 0 0 0 0 0 0 0 0 0 0 0 0 0 0 0 0 0 0 0 0 0 0 0 0 0 0 0 0 0 0 0 0 0 0 0 0 0 0 0 0 0 0
0 0 0 0 0 0 0 0 0 0 0 0 0 0 0 0 0 0 0 0 0 0 0 0 0 0 0 0 0 0 0 0 0 0 0 0 0 0 0 0 0 0 0
0 0 0 0 0 0 0 0 0 0 0 0 0 0 0 0 0 0 0 0 0 0 0 0 0 0 0 0 0 0 0 0 0 0 0 0 0 0 0 0 0 0 0
0 0 0 0 0 0 0 0 0 0 0 0 0 0 0 0 0 0 0 0 0 0 0 0 0 0 0 0 0 0 0 0 0 0 0 0 0 0 0 0 0 0 0
0 0 0 0 0 0 0 0 0 0 0 0 0 0 0 0 0 0 0 0 0 0 0 0 0 0 0 0 0 0 0 0 0 0 0 0 0 0 0 0 0 0 0
0 0 0 0 0 0 0 0 0 0 0 0 0 0 0 0 0 0 0 0 0 0 0 0 0 0 0 0 0 0 0 0 0 0 0 0 0 0 0 0 0 0 0
0 0 0 0 0 0 0 0 0 0 0 0 0 0 0 0 0 0 0 0 0 0 0 0 0 0 0 0 0 0 0 0 0 0 0 0 0 0 0 0 0 0 0
0 0 0 0 0 0 0 0 0 0 0 0 0 0 0 0 0 0 0 0 0 0 0 0 0 0 0 0 0 0 0 0 0 0 0 0 0 0 0 0 0 0 0
0 0 0 0 0 0 0 0 0 0 0 0 0 0 0 0 0 0 0 0 0 0 0 0 0 0 0 0 0 0 0 0 0 0 0 0 0 0 0 0 0 0 0
0 0 0 0 0 0 0 0 0 0 0 0 0 0 0 0 0 0 0 0 0 0 0 0 0 0 0 0 0 0 0 0 0 0 0 0 0 0 0 0 0 0 0
0 0 0 0 0 0 0 0 0 0 0 0 0 0 0 0 0 0 0 0 0 0 0 0 0 0 0 0 0 0 0 0 0 0 0 0 0 0 0 0 0 0 0
0 0 0 0 0 0 0 0 0 0 0 0 0 0 0 0 0 0 0 0 0 0 0 0 0 0 0 0 0 0 0 0 0 0 0 0 0 0 0 0 0 0 0
0 0 0 0 0 0 0 0 0 0 0 0 0 0 0 0 0 0 0 0 0 0 0 0 0 0 0 0 0 0 0 0 0 0 0 0 0 0 0 0 0 0 0
0 0 0 0 0 0 0 0 0 0 0 0 0 0 0 0 0 0 0 0 0 0 0 0 0 0 0 0 0 0 0 0 0 0 0 0 0 0 0 0 0 0 0
0 0 0 0 0 0 0 0 0 0 0 0 0 0 0 0 0 0 0 0 0 0 0 0 0 0 0 0 0 0 0 0 0 0 0 0 0 0 0 0 0 0 0
0 0 0 0 0 0 0 0 0 0 0 0 0 0 0 0 0 0 0 0 0 0 0 0 0 0 0 0 0 0 0 0 0 0 0 0 0 0 0 0 0 0 0
0 0 0 0 0 0 0 0 0 0 0 0 0 0 0 0 0 0 0 0 0 0 0 0 0 0 0 0 0 0 0 0 0 0 0 0 0 0 0 0 0 0 0
0 0 0 0 0 0 0 0 0 0 0 0 0 0 0 0 0 0 0 0 0 0 0 0 0 0 0 0 0 0 0 0 0 0 0 0 0 0 0 0 0 0 0
Wind_Speed
6 5 5 5 6 5 5 4 5 5 4 4 3 3 3 3 2 2 2 8 10 11 12 12 13 14 14 15 15 16 17 17 18 18 19 19 19 20 20 21 22 22 23
6 6 6 5 5 5 5 5 5 4 4 3 4 4 4 4 3 3 3 5 10 12 12 12 13 14 14 15 16 17 17 18 19 19 19 20 20 20 20 21 21 22 22
8 7 6 6 6 5 6 4 5 3 3 4 4 5 4 4 4 4 4 3 4 9 13 13 14 14 15 16 17 17 18 19 19 20 20 20 21 21 21 22 22 22 23
9 8 7 6 7 6 5 5 4 4 4 4 4 4 4 4 5 5 5 4 4 4 8 14 15 15 16 17 18 18 19 19 20 20 21 21 21 22 22 23 23 23 23
11 8 7 7 7 6 6 6 6 5 5 5 5 5 4 4 5 6 6 6 6 5 5 10 16 17 17 18 19 19 20 20 21 21 22 22 22 23 23 23 24 24 24
12 10 7 8 8 6 7 6 6 6 5 4 5 5 4 5 5 6 7 6 6 7 7 7 6 10 17 19 19 20 21 21 22 22 23 23 23 24 24 24 24 25 25
13 12 9 9 9 9 9 9 7 7 6 4 2 3 5 7 9 7 6 6 6 7 7 7 5 5 7 17 20 21 22 22 23 23 24 24 24 25 25 25 25 26 26
14 14 13 10 11 9 11 12 9 6 6 7 5 3 3 4 8 10 7 7 7 6 7 9 7 7 6 5 13 22 23 23 24 24 25 25 25 26 26 26 27 27 27
14 13 15 12 12 12 12 13 12 13 9 8 7 6 6 7 3 3 7 8 7 6 6 6 8 9 9 7 8 17 23 24 25 25 25 26 26 27 27 27 27 28 28
14 15 14 15 13 12 12 13 14 11 9 8 7 7 5 5 4 3 3 6 8 8 8 8 9 9 9 7 11 19 24 25 26 26 26 27 27 28 28 28 28 29 29
14 15 15 15 15 13 13 12 13 13 12 10 8 6 6 5 4 5 5 4 4 6 7 8 7 7 8 8 7 14 24 25 26 26 27 27 28 29 29 30 30 30 30
10 15 14 15 14 13 13 13 12 14 13 13 10 8 7 7 8 8 10 7 5 5 6 6 7 7 7 7 12 22 25 25 26 26 27 28 28 29 30 30 31 31 31
10 13 14 15 14 13 12 11 13 13 14 14 14 11 10 9 5 7 8 6 6 5 5 5 7 7 8 7 9 22 22 24 25 26 27 28 29 30 31 31 32 32 33
10 10 14 15 15 14 14 13 12 13 12 14 16 14 10 10 8 8 7 6 4 5 6 7 5 7 7 6 11 20 13 23 26 27 28 29 30 31 31 32 33 33 34
8 10 13 14 15 15 15 14 13 14 13 14 14 14 12 9 8 7 7 7 7 6 7 7 6 6 5 4 11 9 8 20 27 28 29 30 31 32 32 33 33 34 34
9 9 10 12 14 15 15 15 13 12 14 13 11 13 14 10 9 8 8 7 8 8 6 5 6 4 5 8 15 10 9 24 28 29 30 31 31 32 33 33 34 34 35
10 11 11 11 13 14 15 15 16 13 16 15 13 15 16 13 10 9 9 8 9 9 12 8 6 7 8 9 10 9 10 10 13 27 30 31 31 32 33 33 34 35 36
10 11 10 11 13 13 14 16 17 17 17 18 17 16 16 13 15 11 10 11 11 11 10 12 8 8 9 9 9 11 12 12 10 22 29 30 31 32 33 34 34 35 36
10 10 11 12 13 13 14 16 16 17 17 17 16 17 16 15 16 13 13 12 11 11 10 10 10 8 8 8 9 11 13 11 12 17 24 26 29 31 32 33 34 35 36
10 10 11 12 12 11 12 13 14 15 15 15 15 16 16 17 16 15 14 14 12 11 10 10 10 9 9 8 8 10 10 8 10 12 17 20 25 30 32 33 34 35 35
10 9 10 11 10 10 11 11 12 14 14 14 14 15 16 20 24 19 15 12 12 11 10 10 11 10 10 8 9 7 10 9 9 9 10 11 12 12 14 23 29 32 34
9 9 11 11 12 11 19 25 18 13 13 14 15 14 15 22 27 32 32 27 21 15 13 12 11 12 12 10 8 7 8 10 13 5 8 11 9 12 11 10 23 32 34
9 10 11 11 13 15 24 26 28 15 13 14 14 12 13 16 23 16 23 31 28 30 26 15 14 15 13 9 8 10 11 13 15 8 9 15 10 13 11 15 29 32 33
9 10 10 11 12 14 23 25 26 18 13 14 14 14 14 14 15 17 15 15 15 15 18 14 12 12 10 8 9 11 14 14 13 9 8 14 12 12 13 11 23 30 31
9 9 8 10 11 13 21 23 24 10 10 13 14 15 15 15 23 28 18 16 15 14 20 25 24 21 24 25 20 11 10 11 14 10 5 9 12 13 13 12 15 26 29
9 8 8 9 10 10 17 22 22 8 10 10 11 14 24 22 25 28 18 15 16 14 10 11 14 17 15 16 22 12 8 10 13 11 4 6 9 10 12 9 8 9 13
Wind_Direction
180 178 185 183 188 188 188 203 214 211 208 219 221 224 237 252 253 254 276 296 301 306 309 313 316 318 319 320 322 322 323 323 323 323 324 324 324 323 323 322 321 321 321
182 181 186 189 191 191 189 196 207 207 209 208 222 230 234 243 244 246 240 274 288 293 295 298 303 306 308 311 313 315 315 316 317 318 318 318 318 318 317 317 316 315 315
185 184 187 189 192 190 192 196 212 204 213 213 219 229 229 231 235 244 247 234 254 276 283 286 289 293 297 301 304 306 308 309 311 312 312 312 313 313 313 312 311 310 310
189 187 189 192 187 185 187 189 201 197 212 214 220 228 223 219 228 236 236 232 223 238 264 274 281 284 288 292 295 298 300 302 304 305 306 307 308 309 308 308 307 306 305
194 191 192 192 185 186 188 197 198 196 205 211 216 223 223 223 227 237 232 228 223 219 219 257 270 278 283 286 288 291 294 296 298 300 301 303 303 304 304 304 303 302 302
195 194 195 194 188 188 192 195 199 199 202 201 220 232 227 226 226 229 231 230 222 221 220 228 246 267 274 280 284 287 289 292 294 295 297 298 299 299 299 300 299 299 298
195 197 200 198 195 196 197 194 190 199 203 184 198 263 257 234 231 228 220 218 222 221 218 218 217 223 254 269 277 283 286 288 290 292 293 294 296 296 296 296 296 295 295
198 201 202 201 200 199 199 198 193 191 197 183 172 186 266 269 233 225 212 211 216 214 219 224 220 222 226 234 257 270 277 283 286 288 289 291 292 293 293 293 293 292 292
202 203 204 204 203 202 206 203 196 193 199 197 183 169 189 226 255 233 215 214 212 210 214 218 224 226 229 229 239 261 270 276 280 283 286 288 289 290 290 291 291 290 290
208 207 206 207 208 208 209 207 204 199 190 196 201 206 197 172 179 254 265 225 216 217 217 226 232 228 229 227 239 253 264 271 275 278 282 285 287 289 290 290 291 291 291
214 212 209 209 213 213 212 209 206 204 203 200 193 183 209 218 191 191 241 244 233 223 220 223 227 228 228 227 231 250 263 267 271 275 279 283 286 288 289 290 290 290 290
216 215 213 213 215 215 214 212 210 209 209 208 205 195 180 183 197 199 216 222 230 231 224 224 226 227 229 231 242 257 263 268 272 275 279 282 284 285 287 288 288 287 287
221 217 214 217 217 217 215 211 213 215 212 210 212 213 209 206 180 185 201 212 222 229 231 234 230 229 237 232 240 257 265 271 275 278 280 281 282 283 284 284 285 284 284
226 215 212 217 217 215 216 214 217 218 216 217 218 216 217 214 205 198 195 191 219 232 227 234 231 226 232 229 242 262 267 273 277 278 279 280 280 281 282 282 282 282 282
232 217 212 214 215 215 215 214 220 220 218 218 219 218 220 217 210 207 203 195 198 222 230 219 229 227 224 229 257 263 254 267 275 277 279 280 280 281 281 281 281 280 280
235 227 218 214 214 215 215 216 221 218 219 220 216 217 219 216 213 210 210 209 209 218 234 217 222 227 250 263 267 266 259 273 277 279 281 281 281 280 280 281 280 280 279
233 232 226 220 218 217 215 218 222 216 220 221 217 218 220 213 214 214 212 212 217 219 240 242 238 249 249 254 266 265 264 263 266 274 277 279 280 280 281 281 280 279 279
234 233 230 228 225 221 216 217 221 219 219 220 218 217 219 214 215 214 214 217 220 221 231 246 248 250 249 251 256 261 268 267 261 271 276 279 280 281 281 281 281 280 279
241 236 231 231 230 225 220 220 220 220 220 221 217 217 217 214 217 215 215 218 222 226 228 240 249 251 255 255 259 264 263 263 266 273 278 280 281 282 283 283 282 281 280
243 241 238 236 233 228 224 223 221 222 221 220 218 217 215 215 217 215 218 220 221 225 228 236 247 251 256 254 254 262 267 259 266 274 277 279 281 283 284 284 284 283 282
251 245 242 242 236 231 228 223 221 223 222 222 220 219 218 219 221 220 220 219 219 222 226 234 243 250 253 253 251 253 267 274 267 264 272 272 276 275 276 279 281 282 280
257 250 245 243 241 239 244 241 234 226 224 223 224 221 222 229 231 230 229 226 220 220 224 229 237 243 249 248 250 256 269 279 281 245 259 274 272 276 274 269 277 280 279
259 254 250 246 245 246 249 250 246 233 223 225 224 221 224 226 228 229 236 237 234 230 226 222 233 241 249 249 253 265 266 268 273 273 280 283 277 277 277 279 284 284 283
259 255 252 248 247 248 253 253 251 243 226 223 221 219 221 222 222 221 223 230 236 241 242 239 239 246 251 254 251 259 267 271 272 266 258 280 285 283 284 280 283 283 284
264 257 252 248 247 251 254 256 252 239 232 226 222 219 219 220 225 227 223 224 231 239 247 245 245 249 255 260 262 264 268 279 283 279 245 268 283 289 285 280 278 283 286
271 266 260 252 250 250 253 256 253 236 233 230 224 221 223 221 225 229 224 219 227 231 226 237 248 257 261 266 271 266 261 271 279 285 244 254 281 294 291 270 263 276 283